Location: Hilton Head Island
(32.2163°N, 80.7526°W)
Time: 20:12:56
(UTC-04:00)

Tiros 1 despin weight - Pass Details

Date: 25 February 2026
Orbit: 556 x 593 km, 48.2° (Epoch: 9 March)

Event Time Altitude Azimuth Distance (km) Brightness Sun altitude
Rises 18:53:01 0° 308° (NW) 2,731 ? -8.3°
Reaches altitude 10° 18:55:16 10° 308° (NW) 1,833 ? -8.7°
Maximum altitude 18:59:27 81° 221° (SW) 565 ? -9.6°
Drops below altitude 10° 19:03:37 10° 134° (SE) 1,832 ? -10.5°
Enters shadow 19:04:44 - 134° (SE) 2,275 ? -10.7°
Sets 19:05:52 0° 133° (SE) 2,728 - -11.0°
